Theta_e
306 307 306 305 304 304 303 305 300 303 304 308 312 313 315 320 320 318 317 318 320 321 321 318 320 321 322 324 323 323 321 325 329 333 337 336 334 334 333 333 332 331 332 332
302 306 306 303 305 305 305 304 304 305 306 313 316 316 316 319 319 317 318 318 320 322 322 318 320 320 322 324 322 321 321 322 326 327 331 333 335 332 331 330 332 330 325 326
300 304 304 300 304 305 306 307 307 303 309 313 312 313 316 320 320 320 320 320 320 322 322 320 321 323 323 324 322 321 320 320 323 325 326 332 332 332 330 332 334 328 327 326
301 303 293 304 311 309 308 308 310 310 311 313 314 317 316 318 321 321 322 322 322 324 325 324 323 323 325 325 322 319 320 318 321 322 324 328 330 331 333 333 333 331 327 326
299 298 302 303 307 307 307 307 312 310 311 312 315 316 317 319 320 324 325 326 325 326 328 325 324 324 324 324 322 319 319 319 318 321 324 326 328 331 334 335 333 332 329 327
302 297 294 304 309 312 312 302 314 314 314 314 314 307 311 320 321 325 326 328 327 328 328 326 326 325 324 323 322 319 319 321 318 319 325 326 332 333 334 336 334 330 329 330
300 301 301 309 311 313 300 304 316 316 317 317 314 316 326 326 324 328 327 328 330 329 327 327 327 326 324 323 323 322 321 322 321 321 326 330 334 334 334 334 331 332 329 330
302 299 295 312 310 306 316 327 322 319 319 318 320 322 323 324 325 326 326 327 329 328 328 329 328 326 324 324 326 324 322 322 322 326 321 329 333 332 332 331 333 329 330 327
303 304 319 317 318 324 324 320 318 320 320 320 318 319 320 323 326 327 327 327 328 329 330 330 328 326 324 327 327 324 323 324 325 324 324 329 330 330 328 330 328 323 324 322
302 308 312 314 318 320 320 320 321 322 322 320 319 320 321 321 325 325 327 327 329 329 330 330 329 328 327 328 327 325 325 326 326 323 323 327 328 329 325 324 323 322 320 320
301 307 312 313 316 317 318 320 320 321 320 321 322 322 322 322 325 324 326 328 329 328 330 331 331 330 329 329 327 325 326 326 326 324 322 326 327 327 325 326 321 322 321 320
299 302 303 313 313 315 319 318 321 320 321 323 322 323 324 324 326 326 326 328 330 331 333 332 332 331 330 329 327 328 326 325 324 323 321 324 324 325 299 305 302 299 300 314
300 304 305 308 316 317 318 319 321 320 322 322 323 324 323 323 327 323 327 328 329 329 329 331 331 331 331 329 329 327 327 326 323 321 322 320 321 321 319 307 296 296 299 299
304 302 302 309 311 314 318 320 319 322 322 322 322 325 323 324 326 325 325 327 329 329 329 330 330 330 332 331 330 328 330 311 324 322 324 321 321 320 322 318 315 314 300 304
302 305 304 306 311 312 316 317 317 318 320 321 323 322 323 322 325 324 326 328 331 328 327 327 328 330 332 332 330 329 328 326 325 324 323 321 321 320 319 320 317 317 309 303
302 304 304 304 308 310 311 315 314 316 319 321 321 321 323 325 325 324 325 325 326 328 329 328 328 331 332 331 332 331 329 315 318 325 323 323 322 321 319 317 319 317 315 311
300 300 303 304 307 309 308 309 313 314 316 317 321 322 322 322 323 325 325 329 328 330 332 332 331 331 330 332 333 330 329 327 316 324 323 323 322 321 320 319 318 317 316 312
306 305 306 308 307 308 308 309 309 313 316 317 319 322 321 322 324 326 327 332 330 331 339 338 335 334 332 332 334 330 330 329 325 324 324 323 323 322 323 320 320 318 317 309
304 305 306 308 308 309 309 310 311 312 313 317 319 320 321 323 326 328 330 330 330 331 335 338 316 329 338 328 326 330 329 329 328 326 326 316 321 323 322 322 321 321 315 307
304 305 307 307 308 308 309 311 313 315 318 320 320 320 321 321 327 328 332 330 334 334 339 336 336 336 338 333 311 328 329 328 328 328 326 325 325 323 324 313 322 318 313 310
305 306 305 306 306 309 310 312 312 314 318 320 321 320 321 323 326 329 330 327 335 329 331 316 333 334 333 326 326 326 327 331 330 329 327 324 324 324 328 323 321 318 315 312
308 308 309 308 308 311 313 313 314 315 316 317 320 322 320 326 327 328 330 328 329 301 324 330 329 298 316 299 330 330 327 327 328 329 328 325 325 326 325 325 322 319 318 314
304 306 308 311 312 314 314 315 313 316 315 320 324 324 323 325 328 328 325 328 327 310 329 325 298 292 292 326 328 328 329 328 327 328 328 328 325 325 324 320 321 317 314 313
303 303 307 313 314 315 315 317 320 324 323 323 322 323 323 320 321 322 321 309 303 311 318 313 305 293 290 327 326 326 325 327 326 324 321 308 321 321 319 317 314 314 310 306
303 303 304 306 311 313 313 314 316 319 320 321 322 322 322 323 320 321 322 321 299 311 322 297 297 296 325 325 324 324 325 325 323 324 320 320 316 316 314 312 309 305 303 301
303 303 304 305 307 309 310 312 314 315 316 317 318 319 318 320 319 320 322 316 323 311 323 324 325 326 325 324 323 322 321 318 318 317 317 315 312 312 308 306 304 303 300 299
305 301 305 305 307 307 307 307 307 308 310 313 313 316 319 319 317 317 311 322 323 323 324 324 322 316 322 322 321 320 320 319 310 317 315 315 311 311 307 303 303 300 299 298
Wind_Speed
23 23 27 25 24 26 25 19 18 16 16 11 14 12 11 14 16 17 16 17 14 13 12 13 12 10 11 10 9 7 8 9 5 4 4 5 5 5 11 10 6 7 5 2
24 27 26 28 27 26 25 23 22 20 18 13 9 19 13 16 15 15 17 17 16 14 14 14 14 11 10 10 10 8 7 10 8 6 4 5 6 5 6 5 7 9 7 8
18 23 23 25 26 26 21 21 22 20 14 13 11 11 8 16 14 14 16 17 17 16 14 13 13 11 11 10 11 9 8 10 10 7 7 6 6 5 4 5 6 10 9 8
15 17 27 12 21 22 20 18 19 17 16 16 13 8 11 13 17 15 15 16 17 15 13 13 13 13 11 11 11 11 9 11 11 10 9 7 7 6 6 4 5 6 8 7
16 15 13 24 20 23 21 18 18 18 15 14 16 13 9 9 9 14 12 13 15 15 14 14 13 13 12 12 13 12 11 11 12 11 11 8 7 8 6 4 4 3 7 8
14 16 21 14 22 15 14 15 15 16 13 13 14 11 9 12 11 15 14 12 14 18 16 15 13 14 13 13 13 13 12 12 12 11 11 10 7 8 7 5 5 4 6 7
13 8 13 19 14 17 17 7 13 14 15 13 12 8 8 10 10 14 15 13 14 19 18 17 15 14 14 14 14 13 12 12 11 10 9 8 8 7 6 5 6 5 6 6
15 13 11 13 17 21 7 6 6 14 14 12 8 8 8 7 2 12 15 14 15 17 16 17 16 15 15 13 12 13 13 12 12 9 9 8 9 8 7 5 5 5 6 5
8 11 3 6 8 7 8 7 7 14 12 12 12 12 11 8 9 8 11 11 13 14 16 16 17 17 16 12 13 13 11 11 11 12 8 10 9 8 7 5 4 6 5 5
9 17 14 11 8 7 10 8 7 9 8 12 13 13 12 11 11 8 7 10 12 14 18 17 17 17 15 14 14 13 10 10 12 12 8 10 9 8 8 8 7 8 7 7
13 11 11 2 9 6 9 8 10 8 7 8 10 12 11 9 10 8 8 9 12 11 14 18 16 16 16 16 16 12 10 11 12 10 10 10 9 9 9 9 9 7 7 7
5 19 13 13 17 28 13 3 3 9 8 12 8 10 13 11 10 9 9 10 10 8 9 16 17 16 17 17 17 12 11 11 11 11 10 9 9 7 5 2 13 9 6 5
13 15 19 22 14 20 20 4 10 6 10 11 11 10 10 8 10 9 10 11 12 12 11 11 16 16 17 18 17 16 12 12 10 11 11 10 10 9 9 6 11 6 8 5
7 17 22 21 8 9 28 11 10 13 12 11 8 11 9 8 11 10 8 10 10 13 13 12 13 16 16 18 17 17 13 14 11 12 11 12 10 10 8 9 7 5 4 2
12 18 21 19 24 9 20 10 7 1 2 2 6 9 8 4 8 8 8 7 7 8 9 12 12 14 15 17 17 17 15 12 12 11 11 13 11 11 11 10 11 9 5 4
17 18 24 20 20 21 15 10 8 6 7 11 6 6 13 9 6 4 6 6 6 7 6 9 11 12 15 16 15 13 15 17 14 11 12 10 12 12 12 11 10 12 11 10
17 17 17 17 16 21 14 13 9 9 6 8 7 7 6 8 7 6 6 5 3 3 6 5 6 11 13 13 13 11 12 12 14 11 11 13 11 13 12 11 11 12 12 13
14 16 18 14 15 17 17 13 12 11 9 10 8 8 6 5 6 7 7 7 6 4 3 7 9 2 8 13 11 10 9 13 14 14 12 12 9 11 10 12 12 11 12 12
16 17 12 15 16 17 15 12 13 14 13 13 11 4 11 6 6 5 6 7 8 6 2 1 8 7 6 9 12 9 9 8 12 13 12 10 12 9 10 8 10 7 11 11
18 18 17 18 17 18 18 16 14 13 12 12 13 13 10 8 7 7 6 7 5 5 6 6 4 1 4 3 4 7 9 9 9 10 11 11 10 9 7 9 7 10 10 12
15 18 19 18 18 20 19 17 16 16 16 15 15 15 14 12 10 9 8 6 8 7 3 4 3 4 5 5 4 6 6 4 7 6 8 9 10 7 4 6 10 10 10 10
10 9 16 19 17 17 16 17 20 19 20 20 18 18 15 12 13 11 8 9 8 5 5 6 4 5 2 7 7 8 8 9 5 5 6 7 6 5 5 5 8 9 9 12
8 9 14 20 20 17 19 20 23 24 26 14 6 6 11 7 6 11 8 6 7 3 3 6 4 4 3 2 2 6 1 3 5 5 4 4 6 7 8 10 9 9 10 12
11 14 15 9 10 15 7 8 5 9 15 15 16 15 14 14 9 13 10 10 9 8 7 4 4 7 9 4 6 7 7 6 6 8 7 9 9 8 9 12 13 13 11 9
11 10 16 15 10 7 9 9 4 12 11 15 15 15 15 13 5 3 5 5 3 3 5 3 4 6 4 6 8 6 7 6 6 5 6 5 8 8 9 8 9 11 12 13
9 11 10 12 9 9 7 8 7 9 9 10 11 9 7 5 5 5 5 7 9 7 6 2 6 4 7 6 7 6 6 7 7 7 7 7 7 10 10 10 10 10 11 12
6 10 7 5 3 6 7 8 8 8 8 7 6 6 9 5 3 7 7 2 6 6 5 4 6 7 6 8 7 6 6 6 6 8 8 7 8 8 10 10 9 10 10 11
Wind_Direction
229 230 192 196 206 221 216 211 223 223 245 202 180 187 218 150 156 167 178 170 173 175 172 176 172 178 171 177 161 161 157 137 159 142 156 150 137 98 132 138 142 133 122 158
211 232 212 204 204 215 224 213 213 230 230 234 201 190 192 153 160 177 178 176 178 177 176 176 172 181 175 174 153 162 159 143 158 174 172 134 103 104 109 115 125 127 85 76
222 217 237 207 201 205 219 223 208 216 222 239 230 210 175 141 160 192 180 181 180 178 178 174 171 184 167 173 151 162 167 151 164 182 157 143 140 132 89 95 93 105 96 89
218 219 227 229 193 212 217 223 221 221 208 214 235 195 203 180 172 173 177 182 178 172 171 166 168 177 164 174 158 169 187 161 168 177 162 173 154 132 108 90 91 108 117 110
212 219 227 214 217 198 208 212 211 216 219 218 208 227 231 208 210 165 171 174 173 164 159 160 170 172 170 181 169 178 190 167 170 182 162 175 165 140 138 140 129 135 129 128
186 220 224 212 207 215 204 223 201 205 203 207 228 222 227 197 190 158 160 175 166 158 156 163 170 170 174 188 174 186 188 176 169 181 165 169 158 147 148 165 160 190 141 140
230 234 206 224 198 185 209 235 201 209 190 205 213 214 237 166 177 161 159 165 162 158 166 167 167 171 182 189 182 186 190 178 165 169 158 158 143 146 151 175 173 215 151 146
220 227 220 221 220 213 145 251 248 193 184 193 212 211 231 159 231 173 159 164 163 159 166 165 167 172 186 193 182 190 194 178 163 149 166 154 146 155 160 188 172 196 146 150
227 212 234 302 242 116 149 230 232 186 184 197 192 204 214 171 160 132 156 163 166 161 161 166 172 177 186 190 185 193 197 170 153 148 169 150 150 157 165 189 195 185 174 176
357 274 229 238 265 187 202 212 164 167 178 187 190 198 206 215 162 172 192 183 167 169 161 169 181 181 180 187 186 194 193 161 151 152 163 152 161 168 184 183 209 184 196 191
305 318 310 272 316 179 169 182 193 193 206 194 195 190 191 177 145 170 203 189 164 183 165 168 179 181 178 187 186 194 182 163 157 161 167 162 176 181 197 182 201 191 198 188
344 334 327 294 8 330 215 120 242 173 196 171 191 171 181 158 158 183 186 169 161 165 173 171 173 182 182 187 187 191 178 169 168 166 172 174 183 189 68 258 168 112 90 193
281 293 305 311 15 305 286 113 359 253 210 170 180 160 162 175 151 168 185 181 175 180 190 190 175 179 185 187 190 188 184 174 174 176 171 189 184 205 185 57 76 59 122 78
238 291 289 300 266 250 308 142 118 294 207 168 170 145 165 156 131 163 206 188 197 188 186 192 186 178 185 185 197 182 181 173 180 189 179 187 188 195 194 187 180 173 339 79
273 266 259 280 295 277 269 318 283 217 261 207 176 136 123 131 141 172 192 225 181 204 201 199 197 181 179 187 196 182 180 182 185 182 204 183 196 191 206 193 188 185 114 86
256 241 263 241 255 265 280 275 323 332 333 161 274 126 146 156 163 210 188 206 223 168 227 206 194 182 179 187 187 182 182 186 183 200 189 213 191 196 195 209 185 186 165 162
242 247 275 275 274 241 268 283 286 304 297 307 281 218 167 163 170 194 220 195 145 165 220 261 200 179 182 179 180 198 181 181 186 196 223 197 216 198 199 200 205 187 186 169
233 250 235 254 255 275 253 268 280 265 270 283 293 279 229 237 208 191 208 151 149 250 12 51 20 11 182 168 175 192 199 180 187 203 207 226 214 218 202 203 203 204 183 165
234 225 264 272 263 277 284 279 280 274 261 277 266 233 282 267 228 197 197 179 163 176 249 133 51 15 6 357 175 189 209 207 181 200 209 202 210 245 222 215 207 183 148 148
247 235 212 243 251 266 276 276 276 283 279 281 271 273 228 223 206 183 187 178 107 87 360 131 149 293 308 341 308 223 201 211 206 188 199 210 220 212 255 199 150 131 142 158
250 249 248 234 235 246 234 262 278 281 280 275 280 260 253 201 210 161 147 181 122 124 83 106 154 209 231 223 227 253 252 241 201 194 180 195 205 213 187 142 144 146 151 162
344 321 295 251 240 244 236 233 240 242 244 251 258 261 249 204 168 155 164 203 119 136 176 193 139 53 23 334 221 232 225 247 288 196 153 159 181 164 154 150 134 147 148 128
13 337 290 261 245 238 224 238 235 237 234 232 78 30 35 11 173 132 113 65 116 109 116 61 66 49 347 231 253 243 278 40 34 54 97 119 181 199 148 129 134 118 122 132
6 345 325 305 321 219 120 354 47 113 97 89 92 79 70 71 312 63 71 57 34 72 90 89 13 345 314 118 91 85 87 75 65 61 43 31 38 55 110 123 124 126 116 104
4 296 31 9 74 114 97 89 4 92 84 79 75 79 84 78 117 147 129 126 126 89 81 354 346 333 81 73 82 64 83 74 93 84 97 96 90 88 84 87 103 111 111 115
347 14 13 357 12 22 46 74 56 43 55 64 61 79 78 86 100 93 63 99 98 108 126 81 19 73 104 121 122 127 118 116 114 104 99 88 114 117 115 119 124 122 127 130
12 41 10 7 359 46 35 39 44 31 35 41 71 58 72 84 64 82 93 143 120 100 103 114 70 45 92 93 76 98 123 125 123 129 130 145 141 135 133 137 138 130 139 138